[[{"header":{"parameterUnit":"m.s-1","parameterCategory":1,"la1":30.2991,"la2":30.254,"lo1":-89.0895,"lo2":-89.0444,"dy":0.0017,"dx":0.0017,"nx":28,"ny":28,"refTime":"2024-03-19T03:00:00:Z","depth":0,"parameterNumber":2,"parameterNumberName":"U-component_of_WINDS"},"data":[0,0,0,0,0,0,0,0,0,0,0,0,0,0,0,0,0,0,0,0,0,0,0,0,0,0,0,0,0,0,0,0,0,0,0,0,0,0,0,0,0,0,0,0,0,0,0,0,0,0,0,0,0,0,0,0,0,0,-3.416,-3.4161,0,-3.4212,-3.4213,-3.4213,-3.4064,-3.406,-3.4055,-3.4051,-3.4106,-3.4111,-3.4117,0,0,0,0,0,0,0,0,0,0,0,0,0,-3.3933,-3.3938,-3.416,-3.4161,-3.4162,-3.4212,-3.4213,-3.4213,-3.4065,-3.4059,-3.4054,-3.4049,-3.4104,-3.4111,-3.4117,0,0,0,0,0,0,0,0,0,0,0,0,0,-3.4013,-3.3939,-3.416,-3.4094,-3.4088,-3.4212,-3.4213,-3.4214,-3.4066,-3.4059,-3.4052,-3.4046,-3.4102,-3.411,-3.4118,-3.431,0,0,-3.4145,-3.4148,0,0,0,0,0,0,0,0,-3.4009,-3.4021,-3.4103,-3.4098,-3.4092,-3.4125,-3.4152,-3.4246,-3.4068,-3.4075,-3.4051,-3.4043,-3.4118,-3.4125,-3.4149,-3.4312,-3.4314,-3.4146,-3.4151,-3.4154,-3.4157,0,0,0,0,0,0,0,-3.4003,-3.4018,-3.4181,-3.4104,-3.4098,-3.4061,-3.4065,-3.4169,-3.4134,-3.4074,-3.4063,-3.4071,-3.4114,-3.4142,-3.415,-3.4315,-3.4145,-3.4153,-3.4158,-3.4162,-3.4635,-3.4642,0,0,0,0,0,0,-3.4006,-3.4015,-3.4179,-3.4182,-3.4033,-3.4071,-3.4075,-3.4121,-3.4133,-3.4128,-3.4077,-3.4064,-3.413,-3.414,-3.4151,-3.4374,-3.4154,-3.4162,-3.4167,-3.4628,-3.4637,-3.4645,0,0,0,0,0,0,-3.4002,-3.4022,-3.4177,-3.4096,-3.4112,-3.4082,-3.4135,-3.4126,-3.4154,-3.4135,-3.4128,-3.4112,-3.4125,-3.4139,-3.4271,-3.4374,-3.4166,-3.4174,-3.4619,-3.4631,-3.4641,-3.4824,0,0,0,0,0,0,-3.3996,-3.4022,-3.4094,-3.4098,-3.4117,-3.4297,-3.4142,-3.4132,-3.4169,-3.4152,-3.4166,-3.4162,-3.4121,-3.4259,-3.4279,-3.4382,-3.4181,-3.461,-3.4624,-3.4637,-3.4809,-3.484,-3.4867,0,0,0,0,0,-3.3988,-3.4145,-3.4099,-3.4119,-3.4208,-3.4303,-3.4314,-3.4263,-3.4178,-3.425,-3.4238,-3.4161,-3.4359,-3.4273,-3.4295,-3.4403,-3.4603,-3.462,-3.4636,-3.4796,-3.4834,-3.4866,0,0,0,0,0,0,-3.4155,-3.4144,-3.4093,-3.4255,-3.4281,-3.4278,-3.4368,-3.4305,-3.4356,-3.4339,-3.4274,-3.4278,-3.4422,-3.4425,-3.4329,-3.4587,-3.4466,-3.4488,-3.458,-3.4616,-3.4645,-3.4642,-3.4188,0,0,0,0,0,-3.421,-3.4288,-3.4275,-3.4419,-3.4434,-3.4399,-3.4439,-3.4397,-3.4421,-3.4432,-3.4429,-3.4456,-3.4523,-3.457,-3.4631,-3.4808,-3.4808,-3.4892,-3.4921,-3.4945,-3.4965,-3.5057,-3.5094,-3.47,-3.4699,-3.4699,0,0,-3.4326,-3.433,-3.4383,-3.4453,-3.4468,-3.455,-3.441,-3.4503,-3.4563,-3.4446,-3.457,-3.4569,-3.4594,-3.4749,-3.4817,-3.4756,-3.5074,-3.4967,-3.4986,-3.4993,-3.5078,-3.5116,-3.5149,-3.4711,-3.4709,-3.4707,0,0,-3.4579,-3.459,-3.471,-3.4728,-3.4752,-3.4727,-3.4756,-3.4762,-3.4756,-3.4879,-3.4792,-3.4863,-3.4982,-3.5003,-3.5029,-3.5287,-3.5219,-3.5309,-3.5462,-3.5553,-3.5584,-3.5611,-3.5703,-3.5736,-3.5329,-3.5329,-3.533,0,-3.472,-3.484,-3.4781,-3.488,-3.4912,-3.4808,-3.493,-3.495,-3.4993,-3.5018,-3.4949,-3.5094,-3.5104,-3.5262,-3.5324,-3.5349,-3.538,-3.5308,-3.5584,-3.5611,-3.5635,-3.5722,-3.5757,-3.534,-3.5339,-3.5338,-3.5337,0,-3.5012,-3.5097,-3.5191,-3.5235,-3.5278,-3.5388,-3.5345,-3.5395,-3.5349,-3.5331,-3.5457,-3.5465,-3.5525,-3.5559,-3.5516,-3.5711,-3.5672,-3.5595,-3.5472,-3.5685,-3.5765,-3.5798,-3.5356,-3.5352,-3.5349,-3.5346,0,0,-3.5374,-3.538,-3.5416,-3.5434,-3.5451,-3.5516,-3.562,-3.5678,-3.5723,-3.5755,-3.5841,-3.5943,-3.587,-3.5901,-3.5858,-3.5938,-3.6141,-3.585,-3.5849,-3.5904,-3.6354,-3.6413,-3.6453,-3.6094,-3.61,-3.6105,-3.6352,0,-3.5622,-3.5801,-3.575,-3.5929,-3.6006,-3.5907,-3.5997,-3.6018,-3.6004,-3.6066,-3.605,-3.6123,-3.6022,-3.604,-3.6114,-3.6101,-3.623,-3.6082,-3.6174,-3.6178,-3.6171,-3.6494,-3.6557,-3.679,-3.6383,-3.6389,-3.6392,0,-3.5937,-3.5981,-3.6168,-3.6171,-3.6201,-3.6284,-3.6332,-3.6393,-3.6414,-3.6397,-3.643,-3.6371,-3.6472,-3.6349,-3.6488,-3.6388,-3.6422,-3.6421,-3.6428,-3.6436,-3.6299,-3.6511,-3.6863,-3.6898,-3.6441,-3.6437,-3.6434,0,-3.6182,-3.6288,-3.6412,-3.643,-3.6437,-3.6497,-3.6503,-3.6516,-3.6554,-3.6596,-3.6619,-3.6673,-3.6703,-3.6746,-3.6702,-3.6616,-3.6848,-3.6721,-3.6837,-3.6839,-3.6892,-3.6889,-3.7255,-3.6914,-3.6913,-3.6912,-3.6912,0,-3.6466,-3.6584,-3.6522,-3.6599,-3.6728,-3.6667,-3.6796,-3.679,-3.6803,-3.6877,-3.6794,-3.6865,-3.6803,-3.6868,-3.6835,-3.6955,-3.6969,-3.6958,-3.6948,-3.6966,-3.6968,-3.6988,-3.6971,-3.6922,-3.6919,-3.6918,-3.6916,0,-3.6762,-3.6725,-3.6854,-3.6849,-3.685,-3.6946,-3.6941,-3.7012,-3.699,-3.7085,-3.7103,-3.707,-3.7142,-3.7102,-3.7177,-3.7154,-3.731,-3.7278,-3.7303,-3.7295,-3.7414,-3.7403,-3.7806,-3.7855,-3.7482,-3.7486,-3.7489,0,-3.6946,-3.7034,-3.7037,-3.708,-3.7091,-3.7162,-3.7199,-3.7142,-3.7184,-3.7213,-3.728,-3.7345,-3.7394,-3.7514,-3.7497,-3.7553,-3.7521,-3.7658,-3.7529,-3.7544,-3.7523,-3.7519,-3.7527,-3.7685,-3.7689,-3.7693,-3.7696,0,-3.7276,-3.7252,-3.7309,-3.736,-3.7406,-3.7444,-3.7474,-3.7514,-3.7456,-3.7508,-3.758,-3.7618,-3.7693,-3.7759,-3.7806,-3.7811,-3.7745,-3.7736,-3.7766,-3.7786,-3.7797,-3.7792,-3.7374,-3.7728,-3.7724,-3.7722,-3.772,-3.7719,-3.7521,-3.7594,-3.7607,-3.7673,-3.7689,-3.7719,-3.7785,-3.7771,-3.783,-3.7886,-3.7848,-3.7934,-3.7949,-3.8006,-3.802,-3.8085,-3.803,-3.8074,-3.8085,-3.8097,-3.8113,-3.7786,-3.8094,-3.8093,-3.8092,-3.8091,-3.8091,0,-3.7846,-3.7849,-3.791,-3.7954,-3.8006,-3.7936,-3.7966,-3.8014,-3.8089,-3.811,-3.8159,-3.8241,-3.8304,-3.829,-3.8346,-3.8401,-3.8372,-3.8418,-3.8414,-3.8416,-3.8159,-3.8128,-3.8441,-3.8441,-3.8441,-3.8441,-3.844,-3.844,-3.8022,-3.8141,-3.812,-3.8246,-3.8248,-3.833,-3.8353,-3.838,-3.8395,-3.8491,-3.8542,-3.8532,-3.8539,-3.8594,-3.8648,-3.8642,-3.8667,-3.8724,-3.8708,-3.8469,-3.8434,-3.8401,-3.8371,-3.873,-3.873,-3.8958,-3.896,-3.8962]},{"header":{"parameterUnit":"m.s-1","parameterCategory":1,"la1":30.2991,"la2":30.254,"lo1":-89.0895,"lo2":-89.0444,"dy":0.0017,"dx":0.0017,"nx":28,"ny":28,"refTime":"2024-03-19T03:00:00:Z","depth":0,"parameterNumber":3,"parameterNumberName":"V-component_of_WINDS"},"data":[0,0,0,0,0,0,0,0,0,0,0,0,0,0,0,0,0,0,0,0,0,0,0,0,0,0,0,0,0,0,0,0,0,0,0,0,0,0,0,0,0,0,0,0,0,0,0,0,0,0,0,0,0,0,0,0,0,0,-5.0194,-5.0195,0,-5.0263,-5.0264,-5.0265,-5.017,-5.0167,-5.0163,-5.016,-5.0228,-5.0233,-5.0238,0,0,0,0,0,0,0,0,0,0,0,0,0,-4.9976,-4.998,-5.0194,-5.0195,-5.0196,-5.0263,-5.0264,-5.0265,-5.0171,-5.0167,-5.0162,-5.0159,-5.0226,-5.0232,-5.0238,0,0,0,0,0,0,0,0,0,0,0,0,0,-5.006,-4.9982,-5.0194,-5.0157,-5.0154,-5.0263,-5.0264,-5.0265,-5.0172,-5.0166,-5.0161,-5.0157,-5.0225,-5.0232,-5.0239,-5.0387,0,0,-5.0262,-5.0265,0,0,0,0,0,0,0,0,-5.0056,-5.0068,-5.0162,-5.016,-5.0157,-5.0203,-5.0212,-5.0306,-5.0173,-5.0165,-5.016,-5.0154,-5.0224,-5.0231,-5.0255,-5.039,-5.0393,-5.0262,-5.0267,-5.027,-5.0272,0,0,0,0,0,0,0,-5.005,-5.0065,-5.0222,-5.0163,-5.016,-5.0135,-5.0142,-5.0229,-5.0222,-5.0165,-5.0159,-5.0168,-5.0221,-5.0248,-5.0256,-5.0394,-5.0262,-5.0269,-5.0273,-5.0276,-5.0649,-5.0654,0,0,0,0,0,0,-5.0049,-5.0061,-5.0219,-5.0224,-5.0093,-5.0143,-5.0151,-5.0193,-5.0221,-5.022,-5.0172,-5.0164,-5.0238,-5.0247,-5.0258,-5.043,-5.027,-5.0277,-5.0281,-5.0644,-5.065,-5.0656,0,0,0,0,0,0,-5.0045,-5.0064,-5.0217,-5.014,-5.0158,-5.0153,-5.0201,-5.0197,-5.0224,-5.0226,-5.0224,-5.0201,-5.0234,-5.0247,-5.0355,-5.0431,-5.028,-5.0287,-5.0637,-5.0646,-5.0653,-5.0777,0,0,0,0,0,0,-5.0039,-5.0063,-5.0121,-5.0142,-5.0162,-5.0314,-5.0206,-5.0202,-5.0237,-5.0226,-5.0253,-5.0252,-5.0231,-5.0344,-5.0362,-5.0438,-5.0293,-5.063,-5.0641,-5.0651,-5.0766,-5.0788,-5.0807,0,0,0,0,0,-5.0031,-5.0153,-5.0124,-5.0144,-5.0234,-5.0319,-5.033,-5.0304,-5.0244,-5.03,-5.0301,-5.0251,-5.042,-5.0356,-5.0375,-5.0455,-5.0625,-5.0638,-5.065,-5.0757,-5.0784,-5.0807,0,0,0,0,0,0,-5.014,-5.0155,-5.0123,-5.0256,-5.0287,-5.0303,-5.0374,-5.0335,-5.0383,-5.037,-5.0335,-5.0342,-5.0456,-5.0466,-5.0395,-5.0597,-5.0512,-5.0529,-5.0587,-5.0613,-5.0633,-5.0628,-5.0299,0,0,0,0,0,-5.0179,-5.0248,-5.0257,-5.0373,-5.039,-5.038,-5.0415,-5.0393,-5.0423,-5.0436,-5.0444,-5.0475,-5.0534,-5.0574,-5.0629,-5.0767,-5.077,-5.0831,-5.0852,-5.0869,-5.0883,-5.0954,-5.0981,-5.0696,-5.0696,-5.0696,0,0,-5.0262,-5.0278,-5.0324,-5.0395,-5.0417,-5.0487,-5.0391,-5.047,-5.0521,-5.0447,-5.0549,-5.0556,-5.0587,-5.071,-5.0764,-5.0722,-5.0962,-5.0884,-5.0898,-5.0903,-5.0969,-5.0996,-5.102,-5.0704,-5.0703,-5.0702,0,0,-5.0447,-5.0467,-5.0565,-5.0588,-5.0621,-5.0613,-5.0636,-5.0658,-5.066,-5.0761,-5.0706,-5.0765,-5.0869,-5.0893,-5.0919,-5.111,-5.1064,-5.1128,-5.1236,-5.1306,-5.1328,-5.1348,-5.1414,-5.1438,-5.1143,-5.1143,-5.1144,0,-5.0544,-5.0649,-5.062,-5.0702,-5.0734,-5.067,-5.0767,-5.079,-5.084,-5.0862,-5.0814,-5.0941,-5.0958,-5.1083,-5.113,-5.1154,-5.1177,-5.1125,-5.1328,-5.1347,-5.1365,-5.1427,-5.1453,-5.1151,-5.115,-5.1149,-5.1148,0,-5.0766,-5.0839,-5.0914,-5.0963,-5.1003,-5.1093,-5.1075,-5.1119,-5.1092,-5.1088,-5.119,-5.1207,-5.1263,-5.1292,-5.1267,-5.1413,-5.1386,-5.1333,-5.1247,-5.14,-5.1458,-5.1482,-5.1161,-5.1159,-5.1157,-5.1155,0,0,-5.1023,-5.1053,-5.1081,-5.1101,-5.1132,-5.1187,-5.1272,-5.1327,-5.1365,-5.14,-5.1469,-5.1557,-5.1508,-5.1537,-5.1513,-5.1575,-5.1722,-5.1514,-5.1514,-5.1551,-5.1882,-5.192,-5.1949,-5.1692,-5.1696,-5.17,-5.1878,0,-5.1207,-5.1355,-5.1329,-5.1472,-5.1538,-5.1477,-5.155,-5.1576,-5.1574,-5.1628,-5.1624,-5.1687,-5.1618,-5.1635,-5.1693,-5.1692,-5.1787,-5.1679,-5.1754,-5.1757,-5.1747,-5.1979,-5.2021,-5.2188,-5.1901,-5.1905,-5.1908,0,-5.1441,-5.1485,-5.1634,-5.1652,-5.1678,-5.1746,-5.1792,-5.1845,-5.1872,-5.1866,-5.1898,-5.1862,-5.1944,-5.1857,-5.1968,-5.1895,-5.1923,-5.1927,-5.1933,-5.1938,-5.1841,-5.1989,-5.2241,-5.2266,-5.1944,-5.1941,-5.1938,0,-5.1611,-5.1707,-5.1808,-5.1828,-5.1852,-5.19,-5.1911,-5.1933,-5.1967,-5.2008,-5.2028,-5.2078,-5.2105,-5.2143,-5.2121,-5.206,-5.2235,-5.2147,-5.2231,-5.2232,-5.227,-5.2268,-5.253,-5.2291,-5.2291,-5.2291,-5.229,0,-5.1818,-5.1911,-5.1885,-5.1947,-5.2049,-5.2017,-5.2118,-5.2123,-5.2142,-5.2202,-5.2152,-5.221,-5.2177,-5.2232,-5.2215,-5.2308,-5.2321,-5.2317,-5.2311,-5.2321,-5.2321,-5.2339,-5.2326,-5.2297,-5.2296,-5.2294,-5.2293,0,-5.2025,-5.2011,-5.2117,-5.213,-5.2136,-5.221,-5.222,-5.2277,-5.227,-5.2347,-5.2363,-5.2352,-5.2413,-5.2395,-5.2461,-5.2449,-5.2567,-5.2547,-5.2559,-5.2553,-5.2637,-5.2629,-5.2918,-5.2954,-5.2694,-5.2697,-5.2699,0,-5.2158,-5.2228,-5.2248,-5.2285,-5.2301,-5.2361,-5.2395,-5.2366,-5.2403,-5.2437,-5.2489,-5.2546,-5.259,-5.269,-5.2687,-5.2736,-5.2716,-5.2813,-5.2723,-5.273,-5.2715,-5.2711,-5.2716,-5.2831,-5.2834,-5.2837,-5.2839,0,-5.2394,-5.2383,-5.2434,-5.2483,-5.2524,-5.2561,-5.2593,-5.2626,-5.2598,-5.2642,-5.2704,-5.2738,-5.2804,-5.286,-5.2904,-5.2914,-5.2872,-5.2867,-5.2889,-5.29,-5.2903,-5.29,-5.2606,-5.2861,-5.2859,-5.2857,-5.2856,-5.2855,-5.2566,-5.2625,-5.2648,-5.2705,-5.2726,-5.2757,-5.281,-5.2809,-5.2861,-5.2913,-5.2892,-5.2962,-5.2984,-5.3039,-5.3055,-5.3109,-5.3071,-5.3103,-5.3111,-5.3119,-5.3129,-5.2895,-5.3117,-5.3116,-5.3115,-5.3115,-5.3114,0,-5.2798,-5.2809,-5.2863,-5.2908,-5.2953,-5.291,-5.2942,-5.2982,-5.3045,-5.3069,-5.3113,-5.3182,-5.3236,-5.3236,-5.3285,-5.3328,-5.3309,-5.3342,-5.3338,-5.334,-5.3161,-5.3136,-5.3356,-5.3356,-5.3356,-5.3355,-5.3355,-5.3355,-5.2924,-5.302,-5.3011,-5.3116,-5.3125,-5.3195,-5.3216,-5.3243,-5.3262,-5.3342,-5.3386,-5.3386,-5.34,-5.345,-5.3496,-5.3494,-5.3514,-5.3554,-5.3545,-5.3377,-5.3353,-5.333,-5.3307,-5.3559,-5.3559,-5.3719,-5.3721,-5.3722]}]]